Regional Weather Roundup
Issued by NWS

Home | Current Version | Previous Version | Text Only | Print | Product List | Glossary Off
Versions: 1 2 3 4 5 6 7 8 9 10 11 12 13 14 15 16 17 18 19 20 21 22 23 24 25 26 27 28 29 30 31 32 33 34 35 36 37 38 39 40 41 42 43 44 45 46 47 48 49 50

000
ASUS43 KTOP 261659
RWRKS

WEATHER ROUNDUP FOR KANSAS
NATIONAL WEATHER SERVICE GOODLAND KS
1100 AM CST SUN FEB 26 2017

NOTE:  "FAIR" INDICATES FEW OR NO CLOUDS BELOW 12,000 FEET WITH NO
SIGNIFICANT WEATHER AND/OR OBSTRUCTIONS TO VISIBILITY.

KSZ001>006-013>018-027>032-041>047-261800-
NORTHWEST KANSAS

CITY           SKY/WX    TMP DP  RH WIND       PRES   REMARKS
GOODLAND       SUNNY     38   7  27 E9        29.90S
HAYS           SUNNY     42  18  37 NE6       29.97S
HILL CITY      SUNNY     43   9  24 N16       29.96F
RUSSELL        SUNNY     43  18  36 N9        29.96R
$$

KSZ061>065-074>080-084>089-261800-
SOUTHWEST KANSAS

CITY           SKY/WX    TMP DP  RH WIND       PRES   REMARKS
DODGE CITY     SUNNY     43  17  35 NE14      29.93R
ELKHART          N/A     39   8  27 N8          N/A
GARDEN CITY    SUNNY     42  16  34 NE15      29.92S
LIBERAL        SUNNY     41  18  38 N13       29.92S
$$

KSZ066>073-081>083-090>101-261800-
SOUTHEAST KANSAS

CITY           SKY/WX    TMP DP  RH WIND       PRES   REMARKS
CHANUTE        CLOUDY    46  31  55 S18       30.02R
COFFEYVILLE    CLOUDY    43  33  68 SE10      30.01F
HUTCHINSON     SUNNY     42  21  43 VRB3      29.96S
MEDICINE LODGE   N/A     42  22  44 CALM      29.94S
NEWTON         MOSUNNY   43  23  45 VRB3      29.97S
PARSONS        CLOUDY    44  34  67 S8        30.02F
WICHITA INTL   CLOUDY    42  25  50 S6        29.96S
WICHITA JABRA  CLOUDY    43  24  47 SW8       29.96S
WINFIELD       CLOUDY    47  24  40 S14       29.98S
$$

KSZ007>012-019>026-033>040-048>060-102>105-261800-
NORTHEAST KANSAS

CITY           SKY/WX    TMP DP  RH WIND       PRES   REMARKS
CONCORDIA      SUNNY     45  25  45 SW9       29.97S
EMPORIA        CLOUDY    40  31  70 SE8       29.99F
LAWRENCE       CLOUDY    41  35  79 E6        30.02F
MANHATTAN      SUNNY     47  28  47 VRB7      29.99F
OLATHE IND     PTSUNNY   42  29  59 VRB5      30.03F
OLATHE EXE     PTSUNNY   41  31  67 VRB3      30.03F
SALINA         SUNNY     43  28  55 E8        29.98F
TOPEKA BILLARD CLOUDY    43  32  65 SE8       30.02S
TOPEKA FORBES  CLOUDY    46  27  47 S7        30.01S
$$



USA.gov is the U.S. government's official web portal to all federal, state and local government web resources and services.